Al Qaysumah, Saudi Arabia

2:06 AM +03 on July 27, 2017 (GMT +0300)
Hafr Al-Batin

Weather History for OEPA - November, 2012

Change the Weather History Date:

Thursday, November 1, 2012

  Actual Average Record
Temperature  
Mean Temperature 72 °F -  
Max Temperature 86 °F 75 °F 98 °F (2016)
Min Temperature 57 °F 54 °F 55 °F (1996)
Cooling Degree Days 6    
Growing Degree Days 22 (Base 50)    
Moisture  
Dew Point 39 °F    
Average Humidity 28    
Maximum Humidity 48    
Minimum Humidity 11    
Precipitation  
Precipitation 0.00 in - - ()
Sea Level Pressure  
Sea Level Pressure 30.03 in    
Wind  
Wind Speed 2 mph ()    
Max Wind Speed 7 mph    
Max Gust Speed -    
Visibility 6.0 miles    
Events      
Averages and records for this station are not official NWS values.
T = Trace of Precipitation, MM = Missing Value Source: Averaged Metar Reports

Daily Weather History Graph

Daily Weather History Graph

Search for Another Location

Airport or City:

Trip Planner

Search our weather history database for the weather conditions in past years. The results will help you decide how hot, cold, wet, or windy it might be!

Date:

Astronomy

Nov. 01, 2012 Rise Set
Actual Time 6:07 AM +03 5:10 PM +03
Civil Twilight 5:42 AM +03 5:34 PM +03
Nautical Twilight 5:15 AM +03 6:02 PM +03
Astronomical Twilight 4:47 AM +03 6:30 PM +03
Moon 6:59 PM +03 (11/1) 8:11 AM +03 (11/1)
Length of Visible Light 11h 51m
Length of Day
11h 03m
Waning Gibbous, 94% of the Moon is Illuminated
Nov 1
Waning Gibbous
Nov 7
Last Quarter
Nov 14
New
Nov 20
First Quarter
Nov 28
Full

Hourly Weather History & Observations

Time (+03) Temp. Dew Point Humidity Pressure Visibility Wind Dir Wind Speed Gust Speed Precip Events Conditions
12:00 AM 67 °F 41 °F 27% 30.00 in 6 mi North 2.3 mph - -  
12:00 AM 68.0 °F 41.0 °F 37% 30.04 in - North 2.3 mph - N/A   Clear
1:00 AM 66.2 °F 39.2 °F 37% 30.04 in - Calm Calm - N/A   Clear
2:00 AM 64.4 °F 41.0 °F 42% 30.04 in - Calm Calm - N/A   Clear
3:00 AM 63 °F 41 °F 33% 29.99 in 6 mi Calm Calm - -  
3:00 AM 62.6 °F 41.0 °F 45% 30.04 in - Calm Calm - N/A   Clear
4:00 AM 62.6 °F 41.0 °F 45% 30.04 in - Calm Calm - N/A   Clear
5:00 AM 62.6 °F 41.0 °F 45% 30.04 in - Calm Calm - N/A   Clear
6:00 AM 62 °F 41 °F 34% 30.03 in 6 mi Calm Calm - -  
6:00 AM 62.6 °F 41.0 °F 45% 30.06 in - Calm Calm - N/A   Clear
7:00 AM 59.0 °F 39.2 °F 48% 30.06 in - Calm Calm - N/A   Clear
8:00 AM 66.2 °F 41.0 °F 40% 30.09 in - Calm Calm - N/A   Clear
9:00 AM 74 °F 39 °F 18% 30.06 in 6 mi West 4.6 mph - -  
9:00 AM 73.4 °F 39.2 °F 29% 30.09 in - West 4.6 mph - N/A   Clear
10:00 AM 78.8 °F 39.2 °F 24% 30.09 in - Calm Calm - N/A   Clear
11:00 AM 82.4 °F 41.0 °F 23% 30.09 in - Calm Calm - N/A   Clear
12:00 PM 86 °F 41 °F 12% 30.01 in 6 mi Calm Calm - -  
12:00 PM 86.0 °F 41.0 °F 20% 30.06 in - Calm Calm - N/A   Clear
1:00 PM 84.2 °F 39.2 °F 20% 30.04 in - North 6.9 mph - N/A   Clear
2:00 PM 84.2 °F 39.2 °F 20% 30.01 in - North 4.6 mph - N/A   Clear
3:00 PM 84 °F 37 °F 11% 29.97 in 6 mi North 4.6 mph - -  
3:00 PM 84.2 °F 37.4 °F 19% 30.01 in - North 4.6 mph - N/A   Clear
4:00 PM 82.4 °F 37.4 °F 20% 30.01 in - North 4.6 mph - N/A   Clear
5:00 PM 80.6 °F 37.4 °F 21% 30.01 in - North 6.9 mph - N/A   Clear
6:00 PM 79 °F 37 °F 13% 29.97 in 6 mi NNE 6.9 mph - -  
6:00 PM 78.8 °F 37.4 °F 23% 30.01 in - NNE 6.9 mph - N/A   Clear
7:00 PM 77.0 °F 37.4 °F 24% 30.01 in - NNE 6.9 mph - N/A   Clear
8:00 PM 75.2 °F 37.4 °F 25% 30.01 in - NNE 4.6 mph - N/A   Clear
9:00 PM 75 °F 37 °F 16% 29.99 in 6 mi NNE 4.6 mph - -  
9:00 PM 75.2 °F 37.4 °F 25% 30.01 in - NNE 4.6 mph - N/A   Clear
10:00 PM 73.4 °F 37.4 °F 27% 30.04 in - Calm Calm - N/A   Clear
11:00 PM 71.6 °F 37.4 °F 29% 30.04 in - Calm Calm - N/A   Clear